[[{"header":{"parameterUnit":"m.s-1","parameterCategory":1,"la1":30.2992,"la2":30.254,"lo1":-89.0895,"lo2":-89.0443,"dy":0.0025,"dx":0.0025,"nx":19,"ny":19,"refTime":"2026-05-09T21:00:00:Z","depth":0,"parameterNumber":2,"parameterNumberName":"U-component_of_WINDS"},"data":[0,0,0,-0.2445,-0.2447,-0.2547,-0.2547,-0.2699,-0.27,0,0,0,0,0,0,0,0,0,0,0,-0.2427,-0.2429,-0.2444,-0.2447,-0.2547,-0.2547,-0.2698,-0.27,0,0,0,0,0,0,0,0,0,0,0,-0.2427,-0.2428,-0.243,-0.2448,-0.2547,-0.2547,-0.2698,-0.2615,0,0,0,0,0,0,0,0,0,0,-0.2514,-0.251,-0.2428,-0.243,-0.2448,-0.2547,-0.2547,-0.261,-0.262,-0.2663,0,-0.2702,0,-0.2704,-0.2712,-0.2712,0,0,0,-0.2439,-0.2502,-0.2517,-0.243,-0.2449,-0.2546,-0.2499,-0.2615,-0.2626,-0.2676,-0.2704,-0.2709,-0.2706,-0.2713,-0.2714,-0.2985,-0.2987,0,0,-0.2433,-0.2453,-0.251,-0.2525,-0.2508,-0.2496,-0.2503,-0.2622,-0.2655,-0.2705,-0.2713,-0.2709,-0.2714,-0.2715,-0.2984,-0.2986,0,0,0,-0.2423,-0.2449,-0.2461,-0.2519,-0.2535,-0.2499,-0.2507,-0.265,-0.2652,-0.2714,-0.271,-0.2715,-0.2717,-0.2982,-0.2984,-0.3086,0,0,0,-0.2419,-0.2443,-0.2459,-0.2472,-0.2533,-0.2593,-0.2533,-0.2644,-0.2656,-0.271,-0.2715,-0.2719,-0.298,-0.2983,-0.308,-0.3133,0,0,0,-0.2417,-0.2443,-0.2461,-0.2473,-0.2516,-0.2591,-0.2599,-0.2646,-0.2655,-0.2712,-0.2719,-0.2979,-0.2983,-0.3073,-0.3122,-0.3211,0,0,0,-0.242,-0.2551,-0.2463,-0.2607,-0.2515,-0.2652,-0.2598,-0.2699,-0.2761,-0.2716,-0.298,-0.2984,-0.3072,-0.3116,-0.3205,-0.3291,-0.3328,0,0,-0.2596,-0.2573,-0.2656,-0.258,-0.2737,-0.2635,-0.2807,-0.2846,-0.2835,-0.2936,-0.2943,-0.3082,-0.3122,-0.321,-0.3523,-0.3553,0,0,0,-0.2719,-0.2779,-0.2816,-0.2874,-0.2905,-0.2937,-0.2947,-0.2961,-0.3046,-0.289,-0.3136,-0.3159,-0.321,-0.3251,-0.3276,-0.3319,-0.3003,-0.3002,-0.3002,-0.2998,-0.2974,-0.3111,-0.31,-0.3157,-0.3165,-0.321,-0.3231,-0.3191,-0.325,-0.3281,-0.3474,-0.3522,-0.3541,-0.3586,-0.3322,-0.3322,-0.3323,-0.3323,-0.3256,-0.3339,-0.3281,-0.3393,-0.3368,-0.3464,-0.3476,-0.3445,-0.3532,-0.3448,-0.3492,-0.3406,-0.3574,-0.3613,-0.3331,-0.3329,-0.3328,-0.3328,-0.3327,-0.3439,-0.3474,-0.3487,-0.3569,-0.3635,-0.3618,-0.3704,-0.3677,-0.3654,-0.3697,-0.3728,-0.3726,-0.3724,-0.3713,-0.3713,-0.3714,-0.3715,-0.3715,-0.3715,-0.3625,-0.3636,-0.371,-0.3753,-0.3787,-0.3828,-0.3836,-0.387,-0.3901,-0.3875,-0.3876,-0.3833,-0.3593,-0.3535,-0.3726,-0.3724,-0.3723,-0.3722,-0.3721,-0.39,-0.3833,-0.3948,-0.3982,-0.403,-0.4099,-0.4062,-0.4133,-0.4156,-0.42,-0.4146,-0.3972,-0.3947,-0.3927,-0.388,-0.4149,-0.4149,-0.4149,-0.4149,-0.4057,-0.404,-0.4152,-0.4208,-0.426,-0.4238,-0.4371,-0.4379,-0.4377,-0.4391,-0.4347,-0.4281,-0.4261,-0.4248,-0.4221,-0.4176,-0.4515,-0.4515,-0.4516,-0.4227,-0.4214,-0.4331,-0.4326,-0.4361,-0.4394,-0.4518,-0.4587,-0.4571,-0.453,-0.4402,-0.4387,-0.4278,-0.4244,-0.4204,-0.4162,-0.4079,0,0]},{"header":{"parameterUnit":"m.s-1","parameterCategory":1,"la1":30.2992,"la2":30.254,"lo1":-89.0895,"lo2":-89.0443,"dy":0.0025,"dx":0.0025,"nx":19,"ny":19,"refTime":"2026-05-09T21:00:00:Z","depth":0,"parameterNumber":3,"parameterNumberName":"V-component_of_WINDS"},"data":[0,0,0,1.0062,1.0063,1.0127,1.0127,1.0209,1.0209,0,0,0,0,0,0,0,0,0,0,0,1.0041,1.0042,1.0062,1.0063,1.0127,1.0127,1.0208,1.0209,0,0,0,0,0,0,0,0,0,0,0,1.0041,1.0042,1.0042,1.0063,1.0127,1.0127,1.0208,1.0161,0,0,0,0,0,0,0,0,0,0,1.0099,1.0078,1.0041,1.0042,1.0064,1.0127,1.0127,1.0158,1.0164,1.0179,0,1.0191,0,1.0201,1.0215,1.0215,0,0,0,1.0065,1.0074,1.0092,1.0042,1.0064,1.0127,1.0099,1.0161,1.0167,1.0186,1.0192,1.0195,1.0203,1.0215,1.0215,1.0296,1.0296,0,0,1.0061,1.0052,1.0088,1.0096,1.0084,1.0097,1.0101,1.0165,1.0172,1.0193,1.0197,1.0204,1.0216,1.0216,1.0295,1.0296,0,0,0,1.005,1.005,1.0067,1.0092,1.0104,1.0098,1.0103,1.0169,1.0175,1.0198,1.0205,1.0216,1.0217,1.0295,1.0296,1.03,0,0,0,1.0048,1.0043,1.0065,1.006,1.0102,1.0137,1.0105,1.0171,1.0178,1.0205,1.0216,1.0218,1.0295,1.0295,1.0299,1.0304,0,0,0,1.0038,1.0042,1.005,1.0059,1.0086,1.0136,1.0146,1.0172,1.0182,1.0215,1.0218,1.0295,1.0295,1.0299,1.0303,1.0322,0,0,0,1.0024,1.0055,1.005,1.0087,1.0086,1.0138,1.0146,1.0185,1.0214,1.0216,1.0295,1.0295,1.0298,1.0302,1.0321,1.0336,1.0341,0,0,1.0057,1.0058,1.008,1.0079,1.0129,1.0129,1.0181,1.0216,1.0229,1.0273,1.0275,1.03,1.0303,1.0322,1.0375,1.0379,0,0,0,1.0088,1.0104,1.0119,1.0145,1.0172,1.0196,1.0224,1.0238,1.0276,1.0249,1.0312,1.0314,1.0326,1.0334,1.0337,1.0348,1.0299,1.0299,1.0298,1.0121,1.0134,1.0172,1.0193,1.0218,1.0247,1.0269,1.0293,1.03,1.0314,1.0327,1.0358,1.0366,1.0369,1.038,1.0337,1.0337,1.0337,1.0337,1.017,1.0195,1.0202,1.0241,1.0256,1.029,1.0319,1.0323,1.0357,1.0349,1.036,1.0349,1.0373,1.0383,1.0337,1.0337,1.0337,1.0337,1.0337,1.0193,1.0207,1.0222,1.0261,1.029,1.0311,1.0343,1.0355,1.0368,1.0378,1.0393,1.0393,1.0395,1.0385,1.0385,1.0385,1.0385,1.0385,1.0385,1.0211,1.0228,1.0252,1.0283,1.0302,1.0328,1.0357,1.0376,1.0401,1.0407,1.0408,1.0413,1.0373,1.0362,1.0387,1.0387,1.0386,1.0386,1.0386,1.0255,1.0247,1.0285,1.0303,1.0341,1.0369,1.0384,1.0422,1.044,1.0455,1.0459,1.0427,1.0429,1.0426,1.0418,1.0456,1.0456,1.0456,1.0456,1.0274,1.0276,1.0318,1.0346,1.0375,1.0393,1.0437,1.0461,1.0485,1.0497,1.0493,1.0483,1.048,1.0484,1.048,1.0472,1.0523,1.0523,1.0523,1.0302,1.0307,1.0341,1.0363,1.0394,1.042,1.0462,1.0496,1.0521,1.0526,1.0507,1.0504,1.0487,1.0481,1.0485,1.0479,1.0464,0,0]}]]